Location: Hochstatterhof
(48.7256°N, 10.3487°E)
Time: 03:07:48
(UTC+00:00)

Cosmos 2322 Rocket - Pass Details

Date: 26 September 2023
Orbit: 831 x 852 km, 71.0° (Epoch: 04 December)

Event Time Altitude Azimuth Distance (km) Brightness Sun altitude
Rises 01:58:44 0° 334° (NNW) 3,396 5.5 -30.2°
Reaches altitude 10° 02:01:17 10° 340° (NNW) 2,461 4.8 -29.9°
Maximum altitude 02:06:44 48° 55° (NE) 1,092 3.1 -29.2°
Drops below altitude 10° 02:12:11 10° 129° (SE) 2,461 4.8 -28.5°
Sets 02:14:43 0° 135° (SE) 3,395 5.5 -28.1°
